Location: Madrid
(40.4000°N, 3.6830°W)
Time: 07:54:13
(UTC+02:00)

ISS - Pass Details

Date: 13 October 2017
Orbit: 400 x 408 km, 51.6° (Epoch: 24 October)

Event Time Altitude Azimuth Distance (km) Brightness Sun altitude
Rises 20:04:22 0° 312° (NW) 2,325 0.7 -5.9°
Reaches altitude 10° 20:06:36 10° 323° (NW) 1,465 -0.5 -6.3°
Maximum altitude 20:09:34 30° 27° (NNE) 752 -2.7 -6.9°
Drops below altitude 10° 20:12:31 10° 92° (E) 1,463 -1.7 -7.4°
Enters shadow 20:12:35 10° 92° (E) 1,487 -1.6 -7.4°
